Tracking 27188 objects as of 1-Apr-2023
HD Live streaming from Space Station
objects crossing your sky now

SL-12 DEB

Track SL-12 DEB now!
10-day predictions


NORAD ID: 25684
Int'l Code: 1985-118X
Perigee: 606.5 km
Apogee: 15,359.3 km
Inclination: 64.9 °
Period: 285.2 minutes
Semi major axis: 14353 km
RCS: 0.0262 m2 (small)
Launch date: December 24, 1985
Source: Commonwealth of Independent States (former USSR) (CIS)
Launch site: TYURATAM MISSILE AND SPACE COMPLEX (TTMTR)

Note: This is SATELLITE DEBRIS
Your satellite tracking list
Your tracking list is empty




NASA's NSSDC Master Catalog

Two Line Element Set (TLE):
1 25684U 85118X   23088.98004693  .00000687  00000-0  24467-2 0  9994
2 25684  64.9311 116.6616 5138938  97.9919 320.8390  5.04831517441681
Source of the keplerian elements: AFSPC